Regional Weather Roundup
Issued by NWS

Home | Current Version | Previous Version | Text Only | Print | Product List | Glossary On
Versions: 1 2 3 4 5 6 7 8 9 10 11 12 13 14 15 16 17 18 19 20 21 22 23 24 25 26 27 28 29 30 31 32 33 34 35 36 37 38 39 40 41 42 43 44 45 46 47 48 49 50
000
ASUS45 KBOI 211510
RWRID
WEATHER ROUNDUP FOR IDAHO
NATIONAL WEATHER SERVICE BOISE ID
900 AM MDT SUN SEP 21 2014

NOTE: "FAIR" INDICATES FEW OR NO CLOUDS BELOW 12000 FEET
WITH NO SIGNIFICANT WEATHER AND/OR OBSTRUCTIONS TO VISIBILITY

IDZ012-014-211600-
SOUTHWEST IDAHO


CITY           SKY/WX    TMP DP  RH WIND       PRES   REMARKS
BOISE          PTSUNNY   62  46  55 E3        30.04R
CALDWELL       PTSUNNY   57  45  62 CALM      30.05R
MOUNTAIN HOME  PTSUNNY   59  44  57 E9        30.05R
$$

IDZ016-017-211600-
SOUTHCENTRAL IDAHO


CITY           SKY/WX    TMP DP  RH WIND       PRES   REMARKS
BURLEY         CLOUDY    58  45  62 NE5       30.11R
JEROME         CLOUDY    59  44  57 E8        30.12R
TWIN FALLS     CLOUDY    64  43  46 S5        30.12R
$$

IDZ019>023-211600-
SOUTHEAST IDAHO


CITY           SKY/WX    TMP DP  RH WIND       PRES   REMARKS
IDAHO FALLS    PTSUNNY   58  45  62 N9        30.18R
POCATELLO      SUNNY     53  47  79 CALM      30.16R
REXBURG        PTSUNNY   56  43  61 CALM      30.20R
$$

IDZ006-010-011-018-031-032-211600-
CENTRAL IDAHO MOUNTAINS


CITY           SKY/WX    TMP DP  RH WIND       PRES   REMARKS
MCCALL         MOSUNNY   47  39  74 CALM      30.15S
HAILEY         PTSUNNY   55  43  62 NW16      30.19S
STANLEY          N/A     41  34  76 CALM      30.30S
SALMON         SUNNY     48  43  81 CALM      30.20S
CHALLIS        MOSUNNY   52  39  61 CALM      30.23S
$$

IDZ002-004-006-007-026-211600-
NORTHERN IDAHO


CITY           SKY/WX    TMP DP  RH WIND       PRES   REMARKS
LEWISTON       SUNNY     60  41  49 CALM      29.99S
LOWELL           N/A     50  47  89 NW3       30.08R
COEUR D`ALENE  SUNNY     61  46  59 NE16      30.04S
MULLAN PASS    SUNNY     55  36  48 SE14G24   30.22S
$$


USA.gov is the U.S. government's official web portal to all federal, state and local government web resources and services.